Find Starlink 30392

NORAD ID: 57855 Int'l Des: 2023-141 Owner: SPXS Country: US Constellation: starlink operational
LEOCIRCULAR

当前视图

正在加载3D地球...

About Starlink 30392

Starlink 30392 (NORAD 57855) is a starlink constellation satellite (v2 mini) launched Sep 12, 2023 by SPXS of US. It operates in LEO, CIRCULAR orbit with a mass of 730.00 kg.

关于 Starlink 30392

正在加载描述...

即将过境

Passes for default location (London). Set your location on the main map for personalized predictions.

高度历史

Loading altitude history...

两行轨道根数

1 57855U 23141R 26170.32907112 -.00000530 00000-0 -57804-5 0 9991
2 57855 53.1588 171.7195 0001193 85.7575 274.3562 15.30185132155890
Epoch: Jun 19, 2026 • Age: 12 hours

当前状态

高度 475.6 km
速度 7.63 km/s
星下点 4.67°N, 143.49°E
发射日期 Sep 12, 2023
运行时间 2.7 years
类型 internet

技术详情

分类 Payload
质量 730.00 kg
干质量 700.00 kg
总质量 730.00 kg
长度 0.30 m
直径 4.10 m
跨度 29.00 m
形状 Box + pan
制造商 SPXS
平台类型 Starlink V2M
阶段状态 In Orbit
所有者/国家 SPXS/US

Most Searched